Find OneWeb SL0066

NORAD ID: 45424 Int'l Des: 2020-020 Owner: ONEWEB Country: UK Constellation: oneweb operational
別名: ONEWEB-0066 spacetrack, celestrak
LEOCIRCULARPOLARONEWEB_TYPE

現在のビュー

3D地球を読み込み中...

About OneWeb SL0066

OneWeb SL0066 (NORAD 45424) is a oneweb constellation satellite launched Mar 21, 2020 by ONEWEB of UK. It operates in LEO, CIRCULAR, POLAR, ONEWEB_TYPE orbit with a mass of 148.00 kg.

次回通過

Passes for default location (London). Set your location on the main map for personalized predictions.

高度履歴

Loading altitude history...

軌道要素

1 45424U 20020A 26265.73028027 .00000420 00000-0 11499-2 0 9995
2 45424 87.8967 1.6796 0001856 97.1465 262.9874 13.11415234315469
Epoch: Sep 22, 2026 • Age: 10 hours

現在のステータス

高度 1229.3 km
遠地点 / 近地点 N/A
速度 7.24 km/s
衛星直下点 -29.53°S, 124.58°E
打ち上げ日 Mar 21, 2020
運用期間 6.5 years
タイプ internet

技術仕様

分類 Payload
質量 148.00 kg
乾燥質量 140.00 kg
長さ 1.30 m
直径 1.00 m
スパン 5.00 m
形状 ? Trapezoid+2 pan
製造者 ONEWUS
バスタイプ ARROW
フェーズステータス In Orbit
所有者/国 ONEWEB/UK

Most Searched